XML Sitemap

This is a XML Sitemap which is supposed to be processed by search engines which follow the XML Sitemap standard like Ask.com, Bing, Google and Yahoo.
It was generated using the WordPress content management system and the Google Sitemap Generator Plugin by Arne Brachhold.
You can find more information about XML sitemaps on sitemaps.org and Google's list of sitemap programs.

URLPriorityChange frequencyLast modified (GMT)
https://www.dmaniax.com/2019/08/01/canon-eos-r-l-for-landscape/60%Weekly2019-07-31 18:10
https://www.dmaniax.com/2019/08/01/canon-80mp-eos-r/60%Weekly2019-07-31 17:14
https://www.dmaniax.com/2019/07/31/olympus-omd-em5iii-will-be-oct/60%Weekly2019-07-31 14:01
https://www.dmaniax.com/2019/07/31/nikon-ai-lens-production/60%Weekly2019-07-31 07:47
https://www.dmaniax.com/2019/07/31/nikkor-z-58mm-f-0-95-s-noct-preorder/60%Weekly2019-07-31 07:48
https://www.dmaniax.com/2019/07/31/sony-cmos-imagesernsor-more-expand/60%Weekly2019-07-31 06:36
https://www.dmaniax.com/2019/07/31/nikon-nikkor-z-85mm-f-1-8-s/60%Weekly2019-07-31 07:31
https://www.dmaniax.com/2019/07/31/nikon-to-be-new-business/60%Weekly2019-07-31 03:44
https://www.dmaniax.com/2019/07/31/kakaku-olympus-penf/60%Weekly2019-07-31 03:25
https://www.dmaniax.com/2019/07/28/canon-2019-q2/60%Weekly2019-07-28 11:36
https://www.dmaniax.com/2019/07/26/oppo-reno-get/60%Weekly2019-07-31 03:54
https://www.dmaniax.com/2019/07/26/china-sony-1inchi-compact/60%Weekly2019-07-26 10:50
https://www.dmaniax.com/2019/07/26/sony-rx100m7/60%Weekly2019-07-26 05:37
https://www.dmaniax.com/2019/07/26/canon-tokyo-2020-eos-r-pro/60%Weekly2019-07-26 02:57
https://www.dmaniax.com/2019/07/26/canon-eos-m6-mark-ii-august/60%Weekly2019-07-26 03:23
https://www.dmaniax.com/2019/07/24/bcn-jun-2019-mirrorless-share/60%Weekly2019-07-24 10:34
https://www.dmaniax.com/2019/07/24/xiaomi-redmi-6400mp-soon/60%Weekly2019-07-24 03:40
https://www.dmaniax.com/2019/07/23/sony-new-cybershot-is-rx10v/60%Weekly2019-07-23 13:19
https://www.dmaniax.com/2019/07/23/sony-china-rx100m5b/60%Weekly2019-07-23 10:07
https://www.dmaniax.com/2019/07/22/om-d-e-m5-mark-iii-battery/60%Weekly2019-07-22 15:16
https://www.dmaniax.com/2019/07/20/kodak-mobile-film-scanner/60%Weekly2019-07-20 04:25
https://www.dmaniax.com/2019/07/20/canon-eos-90d-and-eos-m/60%Weekly2019-07-20 01:46
https://www.dmaniax.com/2019/07/19/inside-the-ilford-factory/60%Weekly2019-07-19 11:26
https://www.dmaniax.com/2019/07/19/canon-next-eos-90d-has-ibis/60%Weekly2019-07-19 00:56
https://www.dmaniax.com/2019/07/18/sony-a7r-iv-vs-iii/60%Weekly2019-07-18 11:12
https://www.dmaniax.com/2019/07/18/fujifilm-gf50mm-f3-5r-lf-wr/60%Weekly2019-07-18 07:47
https://www.dmaniax.com/2019/07/18/fujinon-xf16-80mmf4-r-ois-wr/60%Weekly2019-07-18 07:50
https://www.dmaniax.com/2019/07/18/dji-ronin-sc/60%Weekly2019-07-18 01:46
https://www.dmaniax.com/2019/07/17/leak-fujinon-xf16-80mm-f4-gf-50mm-f3-5/60%Weekly2019-07-17 11:29
https://www.dmaniax.com/2019/07/17/sony-a7riv-japan/60%Weekly2019-07-17 06:06
https://www.dmaniax.com/2019/07/17/sony-a7riv-vs-size/60%Weekly2019-07-17 05:09
https://www.dmaniax.com/2019/07/17/nikon-coolpix-w150-2/60%Weekly2019-07-16 18:56
https://www.dmaniax.com/2019/07/17/sony-a7riv-product-page/60%Weekly2019-07-17 05:30
https://www.dmaniax.com/2019/07/16/sony-live/60%Weekly2019-07-18 11:15
https://www.dmaniax.com/2019/07/16/sony-new-camera-a7r4/60%Weekly2019-07-16 12:49
https://www.dmaniax.com/2019/07/16/dji-new-ronin-image/60%Weekly2019-07-16 05:00
https://www.dmaniax.com/2019/07/16/sony-new-highend-camera-leak/60%Weekly2019-07-15 17:29
https://www.dmaniax.com/2019/07/16/olympus-omd-em5-mark-iii-will-be-cheap/60%Weekly2019-07-15 16:37
https://www.dmaniax.com/2019/07/14/sony-jly-17-crazy/60%Weekly2019-07-15 17:37
https://www.dmaniax.com/2019/07/14/sony-a6600-jly-17/60%Weekly2019-07-14 06:58
https://www.dmaniax.com/2019/07/12/sigma-eos-m-classic-art-prime/60%Weekly2019-07-12 12:07
https://www.dmaniax.com/2019/07/11/sigma-fp-japan-info/60%Weekly2019-07-11 09:44
https://www.dmaniax.com/2019/07/11/sigma-35mm-f1-2-dg-dn/60%Weekly2019-07-12 12:13
https://www.dmaniax.com/2019/07/11/sigma-45mm-f2-8-dg-dn-contemporary/60%Weekly2019-07-12 12:18
https://www.dmaniax.com/2019/07/11/sigma-14-24mm-f2-8-dg-dn-art/60%Weekly2019-07-12 12:22
https://www.dmaniax.com/2019/07/11/sigma-fp/60%Weekly2019-07-11 08:51
https://www.dmaniax.com/2019/07/11/sigma-lens-and-ff-foveon-camera/60%Weekly2019-07-11 01:31
https://www.dmaniax.com/2019/07/11/fujifilm-new-neme-will-be-x100v/60%Weekly2019-07-11 00:53
https://www.dmaniax.com/2019/07/10/hd-pentax-da-fish-eye10-17mmf3-5-4-5ed/60%Weekly2019-07-10 13:22
https://www.dmaniax.com/2019/07/10/sony-fe-35mm-f1-8/60%Weekly2019-07-10 12:54
https://www.dmaniax.com/2019/07/10/canon-powershot-g5x-mark-ii/60%Weekly2019-07-10 12:19
https://www.dmaniax.com/2019/07/09/sony-fe-35mm-f-1-8/60%Weekly2019-07-11 00:56
https://www.dmaniax.com/2019/07/09/canon-rf24-240mm-f4-6-3-is-usm/60%Weekly2019-07-09 10:19
https://www.dmaniax.com/2019/07/09/leica-me-only-700/60%Weekly2019-07-09 03:46
https://www.dmaniax.com/2019/07/09/sony-july-17-list/60%Weekly2019-07-09 03:30
https://www.dmaniax.com/2019/07/09/oppo-reno-event-report-4/60%Weekly2019-07-09 04:10
https://www.dmaniax.com/2019/07/09/camera-share-global-2018/60%Weekly2019-07-08 16:04
https://www.dmaniax.com/2019/07/09/olympus-omd-em5iii-sensor-info/60%Weekly2019-07-08 15:42
https://www.dmaniax.com/2019/07/08/next-sony-cybershot-jul/60%Weekly2019-07-08 03:48
https://www.dmaniax.com/2019/07/07/oppo-reno-event-report-3/60%Weekly2019-07-09 02:22
https://www.dmaniax.com/2019/07/07/oppo-reno-event-report-2/60%Weekly2019-07-09 02:23
https://www.dmaniax.com/2019/07/07/sigma-45mm-f28-will-be-pancake/60%Weekly2019-07-07 03:14
https://www.dmaniax.com/2019/07/07/oppo-reno-event-report-1/60%Weekly2019-07-09 02:24
https://www.dmaniax.com/2019/07/04/sony-next-three-code/60%Weekly2019-07-04 12:37
https://www.dmaniax.com/2019/07/04/nikon-d6-dual-cfexpress-2020/60%Weekly2019-07-04 03:57
https://www.dmaniax.com/2019/07/03/leica-m-e-price-500000-yen/60%Weekly2019-07-04 07:50
https://www.dmaniax.com/2019/07/03/20190703-2/60%Weekly2019-07-03 07:19
https://www.dmaniax.com/2019/07/03/nikon-dslr-discon-not-discon/60%Weekly2019-07-03 01:52
https://www.dmaniax.com/2019/07/02/canon-ibis-lens-digital/60%Weekly2019-07-02 09:47
https://www.dmaniax.com/2019/07/01/sigma-35mm-f1-2-july/60%Weekly2019-07-01 13:14